This demonstration page uses our WeatherBlox Daily Observations layout. Learn more.

Left ArrowRight Arrow

Hourly Observations for January 15, 2021

Temp ( °F °C ) Dew Point ( °F °C ) Humidity (%) Winds ( mph kmh ) Pressure ( in mb ) Visibility ( mi km ) Precip ( " mm )
12:53 am 00:53 Clear 15 -9.4 9 -12.8 77 77 SW 10 17 30.47 1032 10 16 0.00 0.00
1:53 am 01:53 Clear 17 -8.3 10 -12.2 74 74 SW 12 19 30.45 1031 10 16 0.00 0.00
2:53 am 02:53 Clear 14 -10 8 -13.3 77 77 WSW 3 6 30.41 1030 10 16 0.00 0.00
3:53 am 03:53 Clear 15 -9.4 10 -12.2 80 80 Calm 30.38 1029 10 16 0.00 0.00
4:53 am 04:53 Clear 17 -8.3 11 -11.7 77 77 Calm 30.35 1028 10 16 0.00 0.00
5:53 am 05:53 Clear 14 -10 10 -12.2 84 84 ENE 5 7 30.32 1027 10 16 0.00 0.00
6:53 am 06:53 Clear 17 -8.3 10 -12.2 74 74 Calm 30.29 1026 10 16 0.00 0.00
7:53 am 07:53 Clear 18 -7.8 12 -11.1 77 77 NE 3 6 30.26 1025 10 16 0.00 0.00
8:53 am 08:53 Sunny 19 -7.2 13 -10.6 77 77 E 8 13 30.24 1024 10 16 0.00 0.00
9:53 am 09:53 Sunny 21 -6.1 15 -9.4 78 78 E 5 7 30.19 1023 10 16 0.00 0.00
10:53 am 10:53 Partly Cloudy 25 -3.9 16 -8.9 69 69 NE 6 9 30.18 1022 10 16 0.00 0.00
11:53 am 11:53 Mostly Sunny 31 -0.6 19 -7.2 61 61 ESE 3 6 30.13 1020 10 16 0.00 0.00
12:53 pm 12:53 Sunny 44 6.7 20 -6.7 38 38 WSW 17 28 30.09 1019 10 16 0.00 0.00
3:53 pm 15:53 Sunny 43 6.1 25 -3.9 49 49 SW 13 20 30.06 1018 10 16 0.00 0.00
4:53 pm 16:53 Clear 41 5 27 -2.8 57 57 SW 14 22 30.06 1018 10 16 0.00 0.00
5:53 pm 17:53 Partly Cloudy 40 4.4 28 -2.2 63 63 WSW 13 20 30.08 1019 10 16 0.00 0.00
6:53 pm 18:53 Cloudy 39 3.9 26 -3.3 60 60 WNW 12 19 30.09 1019 10 16 0.00 0.00
7:53 pm 19:53 Cloudy 35 1.7 26 -3.3 70 70 WNW 12 19 30.10 1019 10 16 0.00 0.00
8:53 pm 20:53 Cloudy 35 1.7 26 -3.3 70 70 WSW 6 9 30.12 1020 10 16 0.00 0.00
9:53 pm 21:53 Cloudy 35 1.7 26 -3.3 70 70 W 6 9 30.13 1020 10 16 0.00 0.00
10:53 pm 22:53 Cloudy 36 2.2 26 -3.3 67 67 W 9 15 30.13 1020 10 16 0.00 0.00
11:53 pm 23:53 Cloudy 37 2.8 25 -3.9 62 62 WSW 7 11 30.16 1022 10 16 0.00 0.00

Powered by AerisWeather